Weather History for North Padre Island, TX

Change the Weather History Date:

Wednesday, December 5, 2012

  Actual Average Record
Temperature  
Mean Temperature 70 °F -  
Max Temperature 71 °F - - ()
Min Temperature 68 °F - - ()
Cooling Degree Days 4    
Growing Degree Days 20 (Base 50)    
Moisture  
Dew Point 62 °F    
Average Humidity 78    
Maximum Humidity 94    
Minimum Humidity 68    
Precipitation  
Precipitation 0.00 in - - ()
Sea Level Pressure  
Sea Level Pressure 30.10 in    
Wind  
Wind Speed 9 mph (North)    
Max Wind Speed 21 mph    
Max Gust Speed 21 mph    
Visibility 8 miles    
Events      
T = Trace of Precipitation, MM = Missing Value Source: NWS Daily Summary

Daily Weather History Graph

Daily Weather History Graph

Search for Another Location

Airport:

Trip Planner

Search our weather history database for the weather conditions in past years. The results will help you decide how hot, cold, wet, or windy it might be!

Date:

Astronomy

Dec. 05, 2012 Rise Set
Actual Time 7:02 AM CST 5:34 PM CST
Civil Twilight 6:37 AM CST 5:59 PM CST
Nautical Twilight 6:08 AM CST 6:28 PM CST
Astronomical Twilight 5:40 AM CST 6:56 PM CST
Moon 11:57 PM CST (12/5) 11:51 AM CST (12/5)
Length of Visible Light 11h 22m
Length of Day
10h 31m
Waning Gibbous, 59% of the Moon is Illuminated
Dec 5
Waning Gibbous
Dec 6
Last Quarter
Dec 13
New
Dec 19
First Quarter
Dec 28
Full

Hourly Weather History & Observations

Time (CST) Temp. Dew Point Humidity Pressure Visibility Wind Dir Wind Speed Gust Speed Precip Events Conditions
12:15 AM 69.8 °F 66.2 °F 88% 30.10 in 6.0 mi West 5.8 mph - N/A   Overcast
12:35 AM 69.8 °F 66.2 °F 88% 30.10 in 6.0 mi WNW 8.1 mph - N/A   Haze
12:55 AM 69.8 °F 66.2 °F 88% 30.10 in 6.0 mi NNW 8.1 mph - N/A   Haze
1:15 AM 69.8 °F 66.2 °F 88% 30.10 in 6.0 mi NNW 8.1 mph - N/A   Haze
1:35 AM 69.8 °F 66.2 °F 88% 30.11 in 6.0 mi North 9.2 mph - N/A   Clear
1:55 AM 69.8 °F 66.2 °F 88% 30.11 in - NNW 6.9 mph - N/A   Unknown
2:15 AM 69.8 °F 68.0 °F 94% 30.10 in 5.0 mi NNW 5.8 mph - N/A   Clear
2:35 AM 71.6 °F 68.0 °F 88% 30.10 in 4.0 mi North 8.1 mph - N/A   Clear
2:55 AM 69.8 °F 68.0 °F 94% 30.10 in 5.0 mi NNE 12.7 mph - N/A   Clear
3:15 AM 71.6 °F 68.0 °F 88% 30.10 in 5.0 mi NE 20.7 mph - N/A   Scattered Clouds
3:35 AM 71.6 °F 68.0 °F 88% 30.10 in 5.0 mi NNE 13.8 mph 20.7 mph N/A   Scattered Clouds
3:55 AM 69.8 °F 66.2 °F 88% 30.10 in 5.0 mi NNE 18.4 mph - N/A   Clear
4:15 AM 69.8 °F 66.2 °F 88% 30.10 in 5.0 mi NE 16.1 mph - N/A   Partly Cloudy
4:35 AM 69.8 °F 66.2 °F 88% 30.10 in 5.0 mi NNE 13.8 mph - N/A   Haze
4:55 AM 71.6 °F 66.2 °F 83% 30.11 in 6.0 mi NNE 8.1 mph - N/A   Haze
5:15 AM 71.6 °F 66.2 °F 83% 30.11 in 5.0 mi NNE 5.8 mph - N/A   Haze
5:35 AM 69.8 °F 66.2 °F 88% 30.12 in 7.0 mi North 6.9 mph - N/A   Clear
5:55 AM 71.6 °F 66.2 °F 83% 30.12 in 7.0 mi NNE 6.9 mph - N/A   Clear
6:15 AM 71.6 °F 66.2 °F 83% 30.13 in 6.0 mi NNE 5.8 mph 13.8 mph N/A   Haze
6:35 AM 71.6 °F 66.2 °F 83% 30.14 in 7.0 mi NNE 5.8 mph - N/A   Mostly Cloudy
6:55 AM 71.6 °F 66.2 °F 83% 30.14 in 7.0 mi North 5.8 mph - N/A   Mostly Cloudy
8:55 AM 69.8 °F 66.2 °F 88% 30.17 in 8.0 mi NNW 6.9 mph - N/A   Clear
9:15 AM 69.8 °F 66.2 °F 88% 30.18 in 7.0 mi NNW 12.7 mph - N/A   Mostly Cloudy
9:35 AM 69.8 °F 64.4 °F 83% 30.18 in 8.0 mi NNW 10.4 mph - N/A   Overcast
9:55 AM 69.8 °F 62.6 °F 78% 30.18 in 8.0 mi NNW 11.5 mph - N/A   Overcast
10:15 AM 69.8 °F 62.6 °F 78% 30.18 in 8.0 mi NNW 8.1 mph - N/A   Partly Cloudy
10:35 AM 69.8 °F 62.6 °F 78% 30.18 in 8.0 mi NNW 10.4 mph - N/A   Clear
10:55 AM 69.8 °F 60.8 °F 73% 30.18 in 8.0 mi NNW 10.4 mph - N/A   Clear
11:15 AM 69.8 °F 60.8 °F 73% 30.18 in 9.0 mi NNW 9.2 mph - N/A   Clear
11:35 AM 68.0 °F 59.0 °F 73% 30.17 in 9.0 mi NNW 10.4 mph - N/A   Scattered Clouds
11:55 AM 68.0 °F 59.0 °F 73% 30.16 in 9.0 mi NNW 9.2 mph - N/A   Mostly Cloudy
12:15 PM 68.0 °F 59.0 °F 73% 30.14 in 9.0 mi NNW 10.4 mph - N/A   Scattered Clouds
12:35 PM 68.0 °F 59.0 °F 73% 30.14 in 9.0 mi NNW 9.2 mph - N/A   Mostly Cloudy
1:15 PM 68.0 °F 59.0 °F 73% 30.11 in 9.0 mi NNW 6.9 mph - N/A   Clear
1:35 PM 69.8 °F 59.0 °F 68% 30.09 in 10.0 mi NNW 9.2 mph - N/A   Clear
1:55 PM 69.8 °F 59.0 °F 68% 30.09 in 9.0 mi NNW 11.5 mph - N/A   Clear
2:15 PM 69.8 °F 59.0 °F 68% 30.08 in 9.0 mi NNW 10.4 mph - N/A   Partly Cloudy
2:35 PM 69.8 °F 59.0 °F 68% 30.08 in 9.0 mi NNW 9.2 mph - N/A   Partly Cloudy
2:55 PM 68.0 °F 59.0 °F 73% 30.07 in 9.0 mi NNW 9.2 mph - N/A   Clear
3:15 PM 68.0 °F 59.0 °F 73% 30.06 in 8.0 mi NNW 8.1 mph - N/A   Clear
3:35 PM 68.0 °F 59.0 °F 73% 30.06 in 9.0 mi NNW 6.9 mph - N/A   Clear
3:55 PM 68.0 °F 59.0 °F 73% 30.06 in 9.0 mi North 8.1 mph - N/A   Clear
4:15 PM 68.0 °F 59.0 °F 73% 30.06 in 9.0 mi North 6.9 mph - N/A   Clear
4:35 PM 68.0 °F 59.0 °F 73% 30.05 in 9.0 mi North 8.1 mph - N/A   Clear
4:55 PM 68.0 °F 59.0 °F 73% 30.06 in 9.0 mi North 5.8 mph - N/A   Clear
5:15 PM 68.0 °F 59.0 °F 73% 30.06 in 9.0 mi NNE 5.8 mph - N/A   Clear
5:35 PM 68.0 °F 59.0 °F 73% 30.06 in 9.0 mi North 5.8 mph - N/A   Clear
5:55 PM 68.0 °F 59.0 °F 73% 30.06 in 9.0 mi NNE 5.8 mph - N/A   Clear
6:15 PM 68.0 °F 59.0 °F 73% 30.06 in 10.0 mi NNE 5.8 mph - N/A   Clear
6:35 PM 68.0 °F 59.0 °F 73% 30.06 in 10.0 mi NNE 10.4 mph - N/A   Clear
6:55 PM 68.0 °F 59.0 °F 73% 30.07 in 10.0 mi NNE 8.1 mph - N/A   Clear
7:15 PM 68.0 °F 59.0 °F 73% 30.07 in 10.0 mi NNE 8.1 mph - N/A   Clear
7:35 PM 68.0 °F 59.0 °F 73% 30.06 in 10.0 mi NNE 11.5 mph - N/A   Clear
7:55 PM 68.0 °F 60.8 °F 78% 30.06 in 9.0 mi NNE 11.5 mph - N/A   Clear
8:15 PM 68.0 °F 60.8 °F 78% 30.06 in 10.0 mi NNE 10.4 mph - N/A   Clear
8:35 PM 68.0 °F 60.8 °F 78% 30.06 in 10.0 mi NE 13.8 mph - N/A   Clear
8:55 PM 69.8 °F 60.8 °F 73% 30.06 in 10.0 mi NE 13.8 mph - N/A   Clear
9:15 PM 69.8 °F 60.8 °F 73% 30.06 in 9.0 mi NNE 11.5 mph - N/A   Clear
9:55 PM 69.8 °F 60.8 °F 73% 30.06 in 9.0 mi NE 13.8 mph - N/A   Clear
10:15 PM 69.8 °F 60.8 °F 73% 30.06 in 10.0 mi NE 15.0 mph - N/A   Clear
10:35 PM 69.8 °F 60.8 °F 73% 30.06 in 10.0 mi NNE 11.5 mph - N/A   Clear
10:55 PM 69.8 °F 60.8 °F 73% 30.05 in 9.0 mi NE 12.7 mph - N/A   Clear
11:15 PM 69.8 °F 60.8 °F 73% 30.05 in 10.0 mi NE 12.7 mph - N/A   Clear
11:35 PM 69.8 °F 59.0 °F 68% 30.05 in 9.0 mi NE 10.4 mph - N/A   Clear
11:55 PM 69.8 °F 59.0 °F 68% 30.03 in 10.0 mi NE 10.4 mph - N/A   Clear